Погода в Нейафу

Тонга     18°39′01″S   173°58′57″W
темп.,
°C
ветер,
м/с
пор.,
м/с
влажн.,
%
обл.,
%
осадки,
мм/ч
давл.,
гПа
погр.,
м
20 января, ср
ср2001:00+28св347991 1.9 1012444
04:00+27всв2277100 3.8 1011322
07:00+28св4477100 4.1 1011571
10:00+28ссв447789 0.7 1012697
13:00+28ссв337282 0.7 1011826
16:00+29ссв337182 0.0 1010847
19:00+29св227090 0.0 1009771
22:00+28св447698 0.1 1011680
21 января, чт
чт2101:00+28ссв457768 0.5 1010696
04:00+28ссв56770 0.0 1008685
07:00+28ссв56765 0.0 1010720
10:00+28ссв567615 0.0 1011698
13:00+28с557715 0.0 1010745
16:00+28с557654 0.0 1009865
19:00+28ссв457744 0.0 1009752
22:00+28ссв557972 0.2 1011614
22 января, пт
пт2201:00+28ссв557886 0.3 1010637
04:00+28ссв567989 0.0 1009631
07:00+28ссв568191 1.1 1010559
10:00+28ссв568097 1.3 1011499
13:00+28с668099 1.3 1010569
16:00+28с4479100 1.8 1009535
19:00+28с1275100 3.6 1010381
22:00+28св2275100 0.1 1012475
23 января, сб
сб2301:00+28всв2272100 2.8 1012171
04:00+28всв3372100 0.3 1010401
07:00+28всв5574100 0.3 1010487
10:00+28св447394 0.0 1012708
13:00+28ссв557697 0.0 1010716
16:00+29с447399 0.1 1009889
19:00+29с347499 0.5 1010785
22:00+28ссв347598 0.7 1011525
24 января, вс
вс2401:00+28с447599 2.4 1011424
04:00+28с3474100 0.8 1009394
07:00+28с4476100 1.4 1010464
10:00+28с447599 0.3 1010536
13:00+28ссз447395 1.0 1009638
16:00+29ссз4471100 0.1 1007895
19:00+28ссз447198 1.0 1008729
22:00+28зсз2372100 1.1 1009362